[Date Prev][Date Next][Thread Prev][Thread Next] - [Date Index][Thread Index][Author Index]
2 Line ISS Keps 11-7
- Subject: [sarex] 2 Line ISS Keps 11-7
- From: "Dave Larsen PhD" <doc@xxxxxxxxxxx>
- Date: Sun, 7 Nov 2004 05:34:25 -0800
ISS
1 25544U 98067A 04312.47623090 .00026753 00000-0 21787-3 0 892
2 25544 51.6365 314.5919 0008292 329.0568 192.0570 15.70411747340822
----
Via the sarex mailing list at AMSAT.ORG courtesy of AMSAT-NA.
To unsubscribe, send "unsubscribe sarex" to Majordomo@amsat.org
AMSAT Home